Location: Kergrach
(48.3833°N, 4.5167°W)
Time: 09:43:54
(UTC+00:00)

COSMO-SKYMED 1 - Pass Details

Date: 18 February 2020
Orbit: 621 x 623 km, 97.9° (Epoch: 04 April)

Event Time Altitude Azimuth Distance (km) Brightness Sun altitude
Rises 05:53:42 0° 182° (S) 2,892 6.0 -15.1°
Reaches altitude 10° 05:55:58 10° 189° (S) 1,991 5.1 -14.8°
Maximum altitude 06:00:06 43° 261° (W) 878 2.9 -14.1°
Drops below altitude 10° 06:04:16 10° 334° (NNW) 2,007 4.9 -13.4°
Sets 06:06:34 0° 341° (NNW) 2,919 5.8 -13.0°
